Weather History for KEGI - September, 2012

Change the Weather History Date:

Sunday, September 16, 2012

  Actual Average Record
Temperature  
Mean Temperature 78 °F -  
Max Temperature 90 °F - - ()
Min Temperature 68 °F - - ()
Cooling Degree Days 14    
Growing Degree Days 28 (Base 50)    
Moisture  
Dew Point 69 °F    
Average Humidity 78    
Maximum Humidity 97    
Minimum Humidity 52    
Precipitation  
Precipitation 0.00 in - - ()
Sea Level Pressure  
Sea Level Pressure 30.03 in    
Wind  
Wind Speed 3 mph (SE)    
Max Wind Speed 13 mph    
Max Gust Speed -    
Visibility 10 miles    
Events      
T = Trace of Precipitation, MM = Missing Value Source: NWS Daily Summary

Daily Weather History Graph

Daily Weather History Graph

Search for Another Location

Airport or City:

Trip Planner

Search our weather history database for the weather conditions in past years. The results will help you decide how hot, cold, wet, or windy it might be!

Date:

Astronomy

Sep. 16, 2012 Rise Set
Actual Time 6:31 AM CDT 6:49 PM CDT
Civil Twilight 6:07 AM CDT 7:13 PM CDT
Nautical Twilight 5:38 AM CDT 7:41 PM CDT
Astronomical Twilight 5:10 AM CDT 8:10 PM CDT
Moon 7:03 AM CDT (9/16) 7:03 PM CDT (9/16)
Length of Visible Light 13h 06m
Length of Day
12h 18m
New Moon, 0% of the Moon is Illuminated
Sep 16
New Moon
Sep 22
First Quarter
Sep 29
Full
Oct 8
Last Quarter
Oct 15
New

Hourly Weather History & Observations

Time (CDT) Temp. Heat Index Dew Point Humidity Pressure Visibility Wind Dir Wind Speed Gust Speed Precip Events Conditions
12:55 AM 70.9 °F - 68.2 °F 91% 30.07 in 10.0 mi Calm Calm - N/A   Partly Cloudy
1:55 AM 69.8 °F - 67.6 °F 93% 30.05 in 10.0 mi Calm Calm - N/A   Clear
2:55 AM 68.7 °F - 67.1 °F 95% 30.04 in 10.0 mi Calm Calm - N/A   Clear
3:55 AM 68.9 °F - 67.5 °F 95% 30.04 in 10.0 mi Calm Calm - N/A   Clear
4:55 AM 68.4 °F - 67.5 °F 97% 30.03 in 10.0 mi Calm Calm - N/A   Clear
5:55 AM 68.2 °F - 67.3 °F 97% 30.04 in 10.0 mi Calm Calm - N/A   Clear
6:55 AM 68.4 °F - 67.5 °F 97% 30.05 in 9.0 mi NE 3.5 mph - N/A   Clear
7:55 AM 72.5 °F - 71.1 °F 95% 30.06 in 10.0 mi NNE 5.8 mph - N/A   Clear
8:55 AM 79.5 °F - 70.7 °F 74% 30.07 in 10.0 mi Calm Calm - N/A   Clear
9:55 AM 83.5 °F 88.5 °F 71.4 °F 67% 30.07 in 10.0 mi Variable 5.8 mph - N/A   Scattered Clouds
10:55 AM 87.1 °F 92.0 °F 70.0 °F 57% 30.06 in 10.0 mi SE 4.6 mph - N/A   Partly Cloudy
11:55 AM 87.8 °F 91.8 °F 68.9 °F 53% 30.05 in 10.0 mi ESE 6.9 mph - N/A   Partly Cloudy
12:55 PM 86.2 °F 91.8 °F 71.2 °F 61% 30.03 in 10.0 mi SE 11.5 mph - N/A   Scattered Clouds
1:55 PM 89.1 °F 93.7 °F 69.4 °F 52% 30.01 in 10.0 mi SSE 12.7 mph - N/A   Mostly Cloudy
2:55 PM 86.5 °F 91.0 °F 69.8 °F 57% 29.99 in 10.0 mi SSE 11.5 mph - N/A   Clear
3:55 PM 86.5 °F 90.7 °F 69.3 °F 56% 29.98 in 10.0 mi South 11.5 mph - N/A   Clear
4:55 PM 84.0 °F 89.3 °F 71.8 °F 66% 29.98 in 10.0 mi SSE 8.1 mph - N/A   Clear
5:55 PM 83.7 °F 88.6 °F 71.2 °F 66% 29.98 in 10.0 mi South 9.2 mph - N/A   Partly Cloudy
6:55 PM 79.7 °F - 70.3 °F 73% 29.99 in 10.0 mi SE 4.6 mph - N/A   Clear
7:55 PM 77.5 °F - 70.0 °F 77% 29.99 in 10.0 mi Calm Calm - N/A   Partly Cloudy
8:55 PM 73.8 °F - 69.4 °F 86% 30.01 in 10.0 mi ESE 3.5 mph - N/A   Scattered Clouds
9:55 PM 72.9 °F - 69.6 °F 90% 30.01 in 10.0 mi ENE 3.5 mph - N/A   Clear
10:55 PM 73.0 °F - 70.9 °F 93% 30.01 in 10.0 mi Calm Calm - N/A   Clear
11:55 PM 70.3 °F - 68.5 °F 94% 30.00 in 10.0 mi East 3.5 mph - N/A   Clear